[[{"header":{"parameterUnit":"m.s-1","parameterCategory":1,"la1":30.2991,"la2":30.254,"lo1":-89.0895,"lo2":-89.0444,"dy":0.0017,"dx":0.0017,"nx":28,"ny":28,"refTime":"2025-05-30T03:00:00:Z","depth":0,"parameterNumber":2,"parameterNumberName":"U-component_of_WINDS"},"data":[0,0,0,0,0,0,0,0,0,0,0,0,0,0,0,0,0,0,0,0,0,0,0,0,0,0,0,0,0,0,0,0,0,0,0,0,0,0,0,0,0,0,0,0,0,0,0,0,0,0,0,0,0,0,0,0,0,0,1.2542,1.2543,0,1.2608,1.2608,1.2609,1.2576,1.2574,1.2572,1.2571,1.2645,1.2649,1.2652,0,0,0,0,0,0,0,0,0,0,0,0,0,1.2398,1.2401,1.2542,1.2543,1.2544,1.2608,1.2609,1.2609,1.2576,1.2574,1.2572,1.257,1.2644,1.2648,1.2653,0,0,0,0,0,0,0,0,0,0,0,0,0,1.2462,1.2402,1.2542,1.2535,1.2535,1.2607,1.2609,1.261,1.2577,1.2574,1.2571,1.2569,1.2643,1.2648,1.2653,1.2739,0,0,1.267,1.2672,0,0,0,0,0,0,0,0,1.2459,1.2468,1.2535,1.2535,1.2535,1.2581,1.2585,1.2653,1.2577,1.2561,1.2571,1.2568,1.2626,1.2633,1.2651,1.2743,1.2746,1.267,1.2673,1.2676,1.2677,0,0,0,0,0,0,0,1.2454,1.2465,1.2568,1.2536,1.2536,1.2531,1.2538,1.2598,1.2608,1.2562,1.256,1.2568,1.2626,1.2646,1.2653,1.2747,1.267,1.2675,1.2678,1.268,1.2917,1.292,0,0,0,0,0,0,1.2449,1.2461,1.2566,1.257,1.249,1.2536,1.2543,1.2569,1.2607,1.261,1.257,1.2566,1.2638,1.2646,1.2655,1.2761,1.2676,1.2681,1.2684,1.2914,1.2918,1.2921,0,0,0,0,0,0,1.2446,1.2459,1.2564,1.2515,1.2528,1.2541,1.2571,1.2572,1.2591,1.2613,1.2615,1.2588,1.2636,1.2648,1.2719,1.2763,1.2683,1.2688,1.2911,1.2915,1.292,1.2972,0,0,0,0,0,0,1.2442,1.2458,1.2488,1.2516,1.2531,1.2624,1.2573,1.2575,1.26,1.2595,1.263,1.2634,1.2635,1.2711,1.2724,1.2769,1.2692,1.2907,1.2913,1.2918,1.2966,1.2978,1.2987,0,0,0,0,0,1.2437,1.2501,1.249,1.2502,1.2568,1.2626,1.2635,1.2633,1.2604,1.2636,1.2651,1.2632,1.2756,1.2719,1.2733,1.278,1.2904,1.2911,1.2918,1.2962,1.2975,1.2987,0,0,0,0,0,0,1.2479,1.2504,1.2492,1.2566,1.2594,1.262,1.266,1.2647,1.2686,1.268,1.2679,1.2687,1.2762,1.2778,1.2736,1.2868,1.2826,1.2836,1.2854,1.2868,1.2878,1.2873,1.2697,0,0,0,0,0,1.2497,1.2539,1.2559,1.2623,1.2638,1.2647,1.2672,1.2668,1.2698,1.2711,1.273,1.2762,1.2808,1.2839,1.2882,1.2969,1.2978,1.3009,1.3019,1.3028,1.3037,1.3088,1.3103,1.2944,1.2944,1.2944,0,0,1.2535,1.2553,1.258,1.2632,1.2653,1.27,1.2657,1.2707,1.2743,1.2719,1.2787,1.2803,1.2839,1.292,1.2956,1.2936,1.3083,1.3037,1.3043,1.3048,1.3097,1.3112,1.3125,1.2948,1.2948,1.2947,0,0,1.2627,1.2644,1.27,1.2723,1.2755,1.2761,1.2775,1.2804,1.2813,1.2881,1.2865,1.2909,1.2988,1.3016,1.304,1.3147,1.3133,1.3161,1.3217,1.3267,1.3279,1.329,1.3332,1.3346,1.317,1.317,1.3171,0,1.267,1.2737,1.2732,1.2784,1.281,1.2788,1.2848,1.287,1.2917,1.2936,1.2912,1.3013,1.3036,1.3124,1.315,1.3169,1.3188,1.3157,1.3277,1.3288,1.3299,1.3338,1.3353,1.3174,1.3173,1.3173,1.3173,0,1.279,1.2837,1.288,1.2923,1.2953,1.3009,1.3016,1.3048,1.3043,1.3053,1.3125,1.3152,1.3202,1.3223,1.3219,1.3312,1.3299,1.3276,1.3234,1.3317,1.3355,1.3369,1.3179,1.3177,1.3176,1.3176,0,0,1.291,1.2951,1.2967,1.2988,1.3023,1.3061,1.3118,1.3165,1.3195,1.3228,1.3278,1.3347,1.3327,1.3355,1.3355,1.3398,1.3485,1.3371,1.3372,1.3393,1.3594,1.3612,1.3629,1.3476,1.3479,1.3481,1.3592,0,1.3006,1.3102,1.3101,1.3192,1.3238,1.322,1.3271,1.33,1.3312,1.3356,1.337,1.342,1.3388,1.3406,1.3448,1.3465,1.3526,1.3457,1.3527,1.3529,1.3519,1.3648,1.3666,1.3769,1.3606,1.3608,1.361,0,1.3131,1.3168,1.3263,1.3294,1.3314,1.3358,1.3404,1.3444,1.3479,1.3485,1.3518,1.3511,1.3574,1.353,1.3618,1.3571,1.36,1.3614,1.3618,1.3625,1.3575,1.3661,1.3801,1.3818,1.3632,1.3631,1.3629,0,1.3212,1.3285,1.3352,1.337,1.3408,1.3441,1.3459,1.3491,1.3521,1.3562,1.3582,1.363,1.3657,1.3697,1.3706,1.3672,1.3796,1.3751,1.3806,1.3806,1.3833,1.3831,1.3982,1.3849,1.3848,1.3848,1.3848,0,1.3321,1.338,1.3389,1.343,1.3498,1.3498,1.3567,1.3582,1.3612,1.3659,1.3648,1.3693,1.3701,1.3749,1.3757,1.3831,1.3843,1.3852,1.3854,1.3854,1.3853,1.3874,1.3868,1.3852,1.3851,1.3851,1.385,0,1.3422,1.343,1.3502,1.3533,1.3542,1.3591,1.3619,1.3661,1.3673,1.3733,1.3747,1.3767,1.3823,1.3836,1.3903,1.3909,1.3998,1.3991,1.3985,1.3985,1.404,1.4036,1.421,1.4235,1.4084,1.4085,1.4087,0,1.3492,1.3537,1.3573,1.3602,1.3621,1.3669,1.37,1.3703,1.3736,1.3781,1.3819,1.3874,1.3918,1.4011,1.4033,1.4086,1.4082,1.414,1.409,1.409,1.4087,1.4084,1.4091,1.415,1.4151,1.4153,1.4154,0,1.3615,1.3617,1.366,1.3705,1.3741,1.3778,1.3813,1.3839,1.3847,1.3886,1.3942,1.3977,1.4046,1.4103,1.4157,1.4179,1.417,1.4169,1.4185,1.4187,1.4182,1.4188,1.4013,1.4165,1.4164,1.4163,1.4163,1.4162,1.3704,1.3745,1.3777,1.3826,1.3853,1.3886,1.3928,1.3945,1.3991,1.4046,1.4047,1.411,1.4148,1.4219,1.4245,1.4298,1.428,1.4302,1.4309,1.4315,1.4321,1.4173,1.4307,1.4307,1.4307,1.4307,1.4306,0,1.3829,1.3849,1.3894,1.3943,1.3983,1.3968,1.4007,1.4043,1.4097,1.4133,1.4177,1.4245,1.43,1.4328,1.4384,1.4421,1.4418,1.4436,1.4434,1.444,1.4332,1.4313,1.4437,1.4437,1.4437,1.4437,1.4437,1.4437,1.3899,1.3968,1.3975,1.4059,1.408,1.4139,1.4164,1.4196,1.4224,1.43,1.4345,1.4362,1.4396,1.4455,1.4507,1.4514,1.4537,1.4557,1.4562,1.4461,1.4447,1.4435,1.4418,1.4561,1.4561,1.4666,1.4667,1.4668]},{"header":{"parameterUnit":"m.s-1","parameterCategory":1,"la1":30.2991,"la2":30.254,"lo1":-89.0895,"lo2":-89.0444,"dy":0.0017,"dx":0.0017,"nx":28,"ny":28,"refTime":"2025-05-30T03:00:00:Z","depth":0,"parameterNumber":3,"parameterNumberName":"V-component_of_WINDS"},"data":[0,0,0,0,0,0,0,0,0,0,0,0,0,0,0,0,0,0,0,0,0,0,0,0,0,0,0,0,0,0,0,0,0,0,0,0,0,0,0,0,0,0,0,0,0,0,0,0,0,0,0,0,0,0,0,0,0,0,-1.7942,-1.794,0,-1.7737,-1.7735,-1.7732,-1.7649,-1.765,-1.765,-1.7651,-1.743,-1.7423,-1.7417,0,0,0,0,0,0,0,0,0,0,0,0,0,-1.8247,-1.8242,-1.7942,-1.7939,-1.7937,-1.7737,-1.7734,-1.7732,-1.7649,-1.765,-1.765,-1.7651,-1.7432,-1.7424,-1.7417,0,0,0,0,0,0,0,0,0,0,0,0,0,-1.8086,-1.8241,-1.7942,-1.7872,-1.7863,-1.7738,-1.7734,-1.7731,-1.7649,-1.765,-1.765,-1.7651,-1.7434,-1.7425,-1.7415,-1.7341,0,0,-1.7386,-1.7382,0,0,0,0,0,0,0,0,-1.8095,-1.8074,-1.7885,-1.7876,-1.7867,-1.772,-1.7761,-1.76,-1.7649,-1.773,-1.7651,-1.7652,-1.7525,-1.7508,-1.7467,-1.7331,-1.7322,-1.7385,-1.738,-1.7376,-1.7373,0,0,0,0,0,0,0,-1.8106,-1.8083,-1.786,-1.7882,-1.7871,-1.7846,-1.7824,-1.773,-1.7625,-1.7723,-1.7717,-1.7694,-1.752,-1.7477,-1.7461,-1.7318,-1.7386,-1.7377,-1.7371,-1.7368,-1.7104,-1.7103,0,0,0,0,0,0,-1.8131,-1.8093,-1.7867,-1.7854,-1.7986,-1.784,-1.7815,-1.7766,-1.7626,-1.7606,-1.7694,-1.7691,-1.7493,-1.7473,-1.7453,-1.7354,-1.7376,-1.7367,-1.7361,-1.7105,-1.7104,-1.7102,0,0,0,0,0,0,-1.8138,-1.8112,-1.7875,-1.7972,-1.794,-1.7834,-1.7779,-1.7761,-1.7718,-1.7604,-1.7584,-1.767,-1.7492,-1.7467,-1.7369,-1.7345,-1.7362,-1.7354,-1.7107,-1.7105,-1.7103,-1.7156,0,0,0,0,0,0,-1.8147,-1.8115,-1.8089,-1.7972,-1.7935,-1.7799,-1.7778,-1.7757,-1.7704,-1.7698,-1.7576,-1.7557,-1.7491,-1.7384,-1.736,-1.7332,-1.7346,-1.7109,-1.7106,-1.7104,-1.7156,-1.7156,-1.7157,0,0,0,0,0,-1.8158,-1.8111,-1.8088,-1.8062,-1.7902,-1.7798,-1.7776,-1.7705,-1.7702,-1.7673,-1.7598,-1.756,-1.7352,-1.7375,-1.7347,-1.7316,-1.711,-1.7107,-1.7104,-1.7156,-1.7156,-1.7157,0,0,0,0,0,0,-1.8225,-1.8095,-1.8068,-1.7983,-1.7902,-1.7784,-1.7746,-1.7709,-1.7625,-1.7623,-1.7534,-1.7507,-1.7416,-1.7356,-1.7384,-1.7233,-1.7227,-1.7219,-1.7276,-1.7276,-1.7276,-1.7291,-1.7338,0,0,0,0,0,-1.8231,-1.8162,-1.805,-1.7985,-1.7946,-1.7853,-1.7805,-1.7757,-1.7669,-1.7634,-1.7552,-1.7465,-1.7379,-1.7324,-1.7239,-1.7147,-1.7116,-1.7111,-1.7112,-1.7113,-1.7105,-1.7047,-1.7042,-1.7093,-1.7093,-1.7093,0,0,-1.824,-1.816,-1.8122,-1.7996,-1.7928,-1.7854,-1.7825,-1.7749,-1.7691,-1.7621,-1.7524,-1.7461,-1.7357,-1.7261,-1.7214,-1.7208,-1.7084,-1.7109,-1.711,-1.7102,-1.7043,-1.7038,-1.7034,-1.7091,-1.7091,-1.7092,0,0,-1.822,-1.8154,-1.8091,-1.8024,-1.7922,-1.786,-1.7845,-1.7731,-1.7687,-1.7589,-1.7534,-1.7461,-1.7317,-1.7243,-1.7187,-1.7134,-1.7094,-1.7108,-1.7109,-1.7052,-1.7048,-1.7044,-1.7021,-1.7014,-1.7102,-1.7102,-1.7102,0,-1.8243,-1.8134,-1.8062,-1.7988,-1.7932,-1.7867,-1.7799,-1.7736,-1.761,-1.7571,-1.7566,-1.738,-1.7306,-1.7189,-1.7176,-1.7134,-1.7109,-1.7121,-1.7056,-1.7051,-1.7046,-1.7022,-1.7014,-1.7104,-1.7104,-1.7104,-1.7104,0,-1.8166,-1.809,-1.805,-1.7933,-1.7872,-1.7801,-1.7714,-1.766,-1.7616,-1.7553,-1.745,-1.7358,-1.7251,-1.722,-1.7176,-1.7095,-1.7094,-1.7074,-1.7065,-1.7044,-1.702,-1.7011,-1.7107,-1.7107,-1.7106,-1.7105,0,0,-1.8184,-1.8026,-1.8012,-1.7956,-1.7837,-1.7775,-1.7698,-1.7596,-1.7549,-1.7464,-1.7394,-1.7271,-1.725,-1.7187,-1.7133,-1.7084,-1.7042,-1.7068,-1.7064,-1.7064,-1.6941,-1.6955,-1.6946,-1.7015,-1.7013,-1.7012,-1.6948,0,-1.8145,-1.801,-1.7941,-1.7833,-1.7758,-1.7694,-1.7626,-1.7543,-1.748,-1.7404,-1.7332,-1.7246,-1.7228,-1.7188,-1.7137,-1.7058,-1.7015,-1.7062,-1.6944,-1.694,-1.697,-1.6935,-1.695,-1.6895,-1.6939,-1.6937,-1.6936,0,-1.8083,-1.7999,-1.7885,-1.777,-1.7736,-1.7678,-1.7576,-1.7506,-1.7407,-1.7364,-1.7292,-1.7238,-1.7149,-1.7148,-1.7021,-1.7054,-1.7001,-1.6954,-1.695,-1.6934,-1.6936,-1.6915,-1.6877,-1.6867,-1.6922,-1.6923,-1.6924,0,-1.8103,-1.7962,-1.7874,-1.7828,-1.7694,-1.7653,-1.7594,-1.7497,-1.7438,-1.7347,-1.7307,-1.7207,-1.7151,-1.7071,-1.699,-1.6998,-1.6868,-1.6862,-1.6826,-1.6828,-1.68,-1.6803,-1.675,-1.6771,-1.6771,-1.6772,-1.6772,0,-1.8066,-1.7997,-1.7881,-1.7827,-1.7746,-1.7664,-1.7585,-1.752,-1.7433,-1.7361,-1.7298,-1.723,-1.7128,-1.7046,-1.6981,-1.6882,-1.6858,-1.6817,-1.68,-1.6822,-1.6826,-1.6784,-1.6785,-1.6769,-1.677,-1.677,-1.6771,0,-1.8076,-1.7996,-1.7895,-1.7775,-1.7743,-1.7688,-1.7582,-1.7524,-1.7457,-1.7366,-1.7339,-1.7233,-1.7133,-1.7044,-1.6911,-1.6867,-1.6764,-1.6745,-1.6799,-1.6789,-1.6756,-1.676,-1.6673,-1.6655,-1.6692,-1.6691,-1.6691,0,-1.8057,-1.8003,-1.7876,-1.7825,-1.7768,-1.7686,-1.7626,-1.7541,-1.748,-1.7361,-1.7315,-1.7211,-1.7123,-1.6964,-1.6872,-1.6768,-1.6743,-1.672,-1.6727,-1.6749,-1.6738,-1.6742,-1.6733,-1.672,-1.672,-1.672,-1.672,0,-1.803,-1.7992,-1.791,-1.7812,-1.7743,-1.7661,-1.7577,-1.7537,-1.7435,-1.7369,-1.7267,-1.7199,-1.7062,-1.6957,-1.6842,-1.6775,-1.6728,-1.6719,-1.6704,-1.6724,-1.6756,-1.6734,-1.6796,-1.6721,-1.6721,-1.6721,-1.6721,-1.6721,-1.8022,-1.7969,-1.7872,-1.778,-1.7708,-1.763,-1.7568,-1.7493,-1.7407,-1.7292,-1.7245,-1.714,-1.7036,-1.6877,-1.681,-1.6722,-1.6714,-1.6694,-1.6688,-1.6684,-1.6686,-1.6772,-1.6701,-1.6701,-1.6701,-1.6701,-1.6701,0,-1.799,-1.7923,-1.784,-1.7724,-1.7651,-1.7616,-1.752,-1.7459,-1.7368,-1.7277,-1.7192,-1.7071,-1.6967,-1.6866,-1.6755,-1.6704,-1.6679,-1.6678,-1.6679,-1.6663,-1.6702,-1.6724,-1.6699,-1.6699,-1.6699,-1.6699,-1.6699,-1.6699,-1.7964,-1.7871,-1.7821,-1.7688,-1.762,-1.7519,-1.7466,-1.7391,-1.7317,-1.7186,-1.7101,-1.7036,-1.6938,-1.6819,-1.6721,-1.6693,-1.6653,-1.6657,-1.6623,-1.666,-1.6661,-1.6662,-1.6683,-1.665,-1.665,-1.6591,-1.659,-1.659]}]]